| time (UTC) | temp F | wind direction | speed MPH | gust MPH | rain 1hr in | rain 24hr in | rain mn in | humidity % | barometer mb |
| 20260507103056 | 63 | 95 | 1.0 | 10.0 | 0.00 | 0.91 | 0.16 | 62 | 1012.4 |
| 20260507101603 | 63 | 51 | 3.0 | 7.0 | 0.00 | 0.91 | 0.16 | 62 | 1012.5 |
| 20260507100056 | 62 | 311 | 2.0 | 6.0 | 0.00 | 0.91 | 0.16 | 62 | 1012.6 |
| 20260507094551 | 62 | 59 | 1.0 | 6.0 | 0.00 | 0.98 | 0.16 | 61 | 1012.7 |
| 20260507093049 | 61 | 28 | 3.0 | 7.0 | 0.00 | 0.98 | 0.16 | 66 | 1012.7 |
| 20260507091547 | 60 | 335 | 3.0 | 7.0 | 0.00 | 0.98 | 0.16 | 69 | 1012.7 |
| 20260507090047 | 59 | 323 | 3.0 | 9.0 | 0.00 | 0.98 | 0.16 | 72 | 1012.7 |
| 20260507084553 | 57 | 323 | 3.0 | 9.0 | 0.00 | 1.07 | 0.16 | 73 | 1012.8 |
| 20260507083037 | 57 | 281 | 5.0 | 9.0 | 0.00 | 1.07 | 0.16 | 76 | 1012.8 |
| 20260507081535 | 56 | 256 | 4.0 | 12.0 | 0.00 | 1.07 | 0.16 | 77 | 1012.7 |
| 20260507080031 | 55 | 318 | 5.0 | 12.0 | 0.00 | 1.07 | 0.16 | 78 | 1012.8 |
| 20260507074530 | 55 | 310 | 5.0 | 15.0 | 0.00 | 1.08 | 0.16 | 78 | 1012.6 |
| 20260507073028 | 55 | 329 | 6.0 | 14.0 | 0.00 | 1.08 | 0.16 | 79 | 1012.5 |
| 20260507071525 | 54 | 313 | 7.0 | 11.0 | 0.00 | 1.08 | 0.16 | 80 | 1012.5 |
| 20260507070030 | 54 | 354 | 5.0 | 10.0 | 0.00 | 1.08 | 0.16 | 80 | 1012.4 |
| 20260507064524 | 54 | 15 | 6.0 | 11.0 | 0.00 | 1.09 | 0.16 | 82 | 1012.4 |
| 20260507063019 | 53 | 349 | 6.0 | 15.0 | 0.02 | 1.09 | 0.16 | 84 | 1012.2 |
| 20260507061518 | 51 | 283 | 5.0 | 12.0 | 0.03 | 1.09 | 0.16 | 86 | 1012.1 |
| 20260507060017 | 51 | 310 | 5.0 | 12.0 | 0.03 | 1.09 | 0.16 | 86 | 1012.1 |
| 20260507054520 | 51 | 319 | 5.0 | 12.0 | 0.03 | 1.12 | 0.16 | 86 | 1012.0 |
| 20260507053015 | 52 | 292 | 3.0 | 11.0 | 0.01 | 1.10 | 0.14 | 85 | 1011.9 |
| 20260507051512 | 52 | 261 | 3.0 | 10.0 | 0.00 | 1.09 | 0.13 | 84 | 1011.7 |
| 20260507050010 | 52 | 326 | 4.0 | 9.0 | 0.00 | 1.12 | 0.13 | 84 | 1011.5 |
| 20260507044508 | 52 | 285 | 5.0 | 11.0 | 0.00 | 1.12 | 0.13 | 85 | 1011.3 |
| 20260507043018 | 51 | 315 | 8.0 | 14.0 | 0.00 | 1.12 | 0.13 | 85 | 1011.2 |
| 20260507041508 | 52 | 359 | 7.0 | 10.0 | 0.00 | 1.12 | 0.13 | 84 | 1011.1 |
| 20260507040007 | 52 | 292 | 2.0 | 7.0 | 0.00 | 1.12 | 0.13 | 83 | 1010.9 |
| 20260507034505 | 52 | 325 | 7.0 | 15.0 | 0.00 | 1.12 | 0.13 | 82 | 1011.0 |
| 20260507033004 | 51 | 274 | 6.0 | 11.0 | 0.00 | 1.12 | 0.13 | 83 | 1011.0 |
| 20260507031503 | 52 | 344 | 8.0 | 15.0 | 0.00 | 1.12 | 0.13 | 84 | 1011.0 |
| 20260507030003 | 52 | 322 | 6.0 | 13.0 | 0.00 | 1.12 | 0.13 | 84 | 1010.9 |
| 20260507024508 | 51 | 336 | 5.0 | 15.0 | 0.01 | 1.12 | 0.13 | 86 | 1011.0 |
| 20260507023100 | 51 | 317 | 7.0 | 15.0 | 0.08 | 1.12 | 0.13 | 86 | 1011.1 |
| 20260507021603 | 51 | 302 | 7.0 | 13.0 | 0.11 | 1.12 | 0.13 | 87 | 1011.1 |
| 20260507020112 | 51 | 336 | 8.0 | 15.0 | 0.11 | 1.12 | 0.13 | 87 | 1011.1 |
| 20260507014556 | 51 | 296 | 7.0 | 16.0 | 0.10 | 1.12 | 0.12 | 86 | 1010.9 |
| 20260507013056 | 52 | 300 | 5.0 | 11.0 | 0.04 | 1.06 | 0.05 | 84 | 1010.8 |
| 20260507011550 | 52 | 342 | 4.0 | 11.0 | 0.01 | 1.03 | 0.02 | 84 | 1010.5 |
| 20260507010053 | 51 | 271 | 5.0 | 11.0 | 0.01 | 1.03 | 0.02 | 85 | 1010.3 |
| 20260507004559 | 52 | 313 | 5.0 | 14.0 | 0.02 | 1.03 | 0.02 | 85 | 1010.5 |
| 20260507003049 | 52 | 291 | 11.0 | 18.0 | 0.01 | 1.02 | 0.01 | 83 | 1010.6 |
| 20260507001546 | 53 | 307 | 7.0 | 14.0 | 0.01 | 1.02 | 0.01 | 82 | 1010.6 |
| 20260507000042 | 52 | 326 | 8.0 | 15.0 | 0.01 | 1.02 | 0.01 | 84 | 1010.6 |
| 20260506234544 | 52 | 317 | 7.0 | 20.0 | 0.00 | 1.05 | 0.00 | 84 | 1010.8 |
| 20260506233039 | 52 | 308 | 11.0 | 20.0 | 0.00 | 1.05 | 0.00 | 83 | 1010.6 |
| 20260506231535 | 53 | 337 | 9.0 | 15.0 | 0.00 | 1.05 | 0.00 | 82 | 1010.6 |
| 20260506230044 | 53 | 331 | 6.0 | 19.0 | 0.00 | 1.05 | 0.00 | 82 | 1010.4 |
| 20260506224534 | 53 | 295 | 9.0 | 23.0 | 0.00 | 1.21 | 0.00 | 83 | 1010.4 |
| 20260506223040 | 53 | 314 | 9.0 | 17.0 | 0.00 | 1.21 | 0.00 | 83 | 1010.5 |
| 20260506221526 | 53 | 292 | 8.0 | 17.0 | 0.00 | 1.21 | 0.00 | 83 | 1010.4 |
| 20260506220025 | 53 | 319 | 7.0 | 17.0 | 0.00 | 1.21 | 0.00 | 83 | 1010.4 |
| 20260506214536 | 53 | 327 | 6.0 | 11.0 | 0.00 | 1.30 | 1.21 | 83 | 1010.2 |
| 20260506213023 | 53 | 290 | 5.0 | 10.0 | 0.00 | 1.30 | 1.21 | 84 | 1010.2 |
| 20260506211521 | 53 | 305 | 6.0 | 14.0 | 0.00 | 1.30 | 1.21 | 85 | 1010.1 |
| 20260506210026 | 53 | 303 | 9.0 | 15.0 | 0.00 | 1.30 | 1.21 | 84 | 1010.1 |
| 20260506204520 | 53 | 276 | 3.0 | 12.0 | 0.00 | 1.33 | 1.21 | 82 | 1010.1 |
| 20260506203020 | 53 | 283 | 7.0 | 12.0 | 0.00 | 1.33 | 1.21 | 81 | 1009.9 |
| 20260506201518 | 54 | 327 | 4.0 | 14.0 | 0.00 | 1.33 | 1.21 | 79 | 1009.8 |
| 20260506200018 | 53 | 269 | 6.0 | 13.0 | 0.00 | 1.33 | 1.21 | 81 | 1009.5 |
| 20260506194516 | 52 | 292 | 6.0 | 14.0 | 0.00 | 1.33 | 1.21 | 86 | 1009.2 |
| 20260506193015 | 52 | 291 | 6.0 | 16.0 | 0.00 | 1.33 | 1.21 | 85 | 1009.9 |
| 20260506191515 | 55 | 46 | 8.0 | 19.0 | 0.00 | 1.33 | 1.21 | 81 | 1010.2 |
| 20260506190015 | 54 | 285 | 10.0 | 17.0 | 0.00 | 1.33 | 1.21 | 82 | 1009.8 |
| 20260506184522 | 54 | 334 | 7.0 | 14.0 | 0.00 | 1.33 | 1.21 | 83 | 1008.7 |
| 20260506183021 | 54 | 337 | 2.0 | 10.0 | 0.00 | 1.33 | 1.21 | 82 | 1008.3 |
| 20260506181514 | 54 | 297 | 4.0 | 13.0 | 0.00 | 1.33 | 1.21 | 82 | 1008.0 |
| 20260506180010 | 54 | 300 | 8.0 | 13.0 | 0.00 | 1.33 | 1.21 | 83 | 1007.8 |
| 20260506174509 | 54 | 308 | 4.0 | 16.0 | 0.00 | 1.33 | 1.21 | 84 | 1007.9 |
| 20260506173008 | 54 | 340 | 4.0 | 11.0 | 0.00 | 1.33 | 1.21 | 84 | 1007.8 |
| 20260506171508 | 55 | 302 | 7.0 | 14.0 | 0.00 | 1.33 | 1.21 | 83 | 1007.6 |
| 20260506170008 | 54 | 9 | 5.0 | 14.0 | 0.01 | 1.33 | 1.21 | 83 | 1007.5 |
| 20260506164509 | 54 | 342 | 10.0 | 18.0 | 0.02 | 1.33 | 1.21 | 83 | 1007.1 |
| 20260506163008 | 54 | 271 | 10.0 | 21.0 | 0.07 | 1.33 | 1.21 | 83 | 1006.7 |
| 20260506161505 | 53 | 291 | 9.0 | 19.0 | 0.16 | 1.33 | 1.21 | 86 | 1006.3 |
| 20260506160009 | 53 | 305 | 6.0 | 15.0 | 0.39 | 1.32 | 1.20 | 88 | 1006.5 |
| 20260506154505 | 52 | 275 | 7.0 | 15.0 | 0.49 | 1.31 | 1.19 | 88 | 1006.7 |
| 20260506153010 | 52 | 279 | 5.0 | 10.0 | 0.56 | 1.26 | 1.13 | 88 | 1007.4 |
| 20260506151503 | 52 | 337 | 10.0 | 21.0 | 0.50 | 1.17 | 1.05 | 87 | 1006.9 |
| 20260506144559 | 55 | 342 | 12.0 | 22.0 | 0.18 | 0.83 | 0.70 | 86 | 1005.1 |
| 20260506143053 | 56 | 315 | 6.0 | 14.0 | 0.06 | 0.71 | 0.57 | 86 | 1006.5 |
| 20260506141552 | 58 | 327 | 6.0 | 11.0 | 0.03 | 0.68 | 0.55 | 85 | 1006.2 |
| 20260506140052 | 61 | 45 | 4.0 | 13.0 | 0.01 | 0.66 | 0.53 | 79 | 1006.6 |
| 20260506134549 | 61 | 224 | 6.0 | 12.0 | 0.00 | 0.66 | 0.52 | 80 | 1006.3 |
| 20260506133048 | 61 | 130 | 3.0 | 16.0 | 0.01 | 0.66 | 0.52 | 81 | 1006.7 |
| 20260506131552 | 60 | 236 | 3.0 | 11.0 | 0.04 | 0.66 | 0.52 | 82 | 1006.8 |
| 20260506130045 | 60 | 231 | 8.0 | 13.0 | 0.05 | 0.66 | 0.52 | 82 | 1006.9 |
| 20260506124544 | 60 | 209 | 6.0 | 15.0 | 0.06 | 0.66 | 0.52 | 83 | 1007.0 |
| 20260506123043 | 58 | 207 | 7.0 | 17.0 | 0.05 | 0.65 | 0.51 | 84 | 1007.3 |
| 20260506121543 | 60 | 234 | 7.0 | 18.0 | 0.02 | 0.62 | 0.48 | 80 | 1007.5 |
| 20260506120043 | 60 | 168 | 11.0 | 21.0 | 0.01 | 0.61 | 0.47 | 77 | 1007.1 |
| 20260506114541 | 60 | 227 | 11.0 | 18.0 | 0.00 | 0.61 | 0.46 | 79 | 1006.8 |
| 20260506113042 | 60 | 233 | 6.0 | 14.0 | 0.00 | 0.61 | 0.46 | 78 | 1006.8 |
| 20260506111536 | 60 | 209 | 8.0 | 14.0 | 0.00 | 0.61 | 0.46 | 78 | 1007.0 |
| 20260506110035 | 60 | 218 | 9.0 | 14.0 | 0.00 | 0.61 | 0.46 | 80 | 1007.2 |
| 20260506104535 | 60 | 211 | 7.0 | 16.0 | 0.00 | 0.61 | 0.46 | 82 | 1007.4 |